Portada
METAR-TAF:

METAR-TAF

Aeroports :

Base aèria

Shizuhama, Japó

latitud: 34-49N, longitud: 138-18E, altitud: 7 m

Observació

L'informe es va fer fa 13 hores i 23 minuts, a les 19:12 UTC
Vent 2 kt del Nord-Oest
Temperatura 13°C
Humitat 77%
Pressió 1008 hPa
Visibilitat 10 km o més
Escasses núvols a una alçada de 2000 ft

METAR: RJNY 111912Z 31002KT 9999 FEW020 13/09 Q1008 RMK 1CU020 A2979

Hora: 17:35 (08:35 UTC)


TAF: manca

Observacions i pronòstics meteorològics de més de 4000 aeroports (METAR i TAF).

Les estacions disponibles són els punts grocs i vermells al mapa.

Posi el ratolí al punt desitjat per veure el nom de l'estació.

Feu clic per veure les observacions i els pronòstics meteorològics.

Per canviar el mapa: feu clic els botons verds amb una creu de color negre per apropar; al botó verd amb un guió per allunyar la imatge; o en les fletxes verdes per a mapes adjacents.


METAR-TAF: